Location: Newark
(44.2003°N, 3.2583°E)
Time: 04:23:19
(UTC+00:00)

Courier 1B - All Passes

Search period start: 16 October 2019 00:00
Search period end: 26 October 2019 00:00
Orbit: 962 x 1209 km, 28.3° (Epoch: 15 October)

Date Brightness Start Highest point End Pass type
(mag) Time Alt. Az. Time Alt. Az. Time Alt. Az.
16 Oct - 00:18:56 10° SW 00:21:06 11° SSW 00:23:14 10° S night (unlit)
16 Oct - 17:46:49 10° SSE 17:48:32 11° SSE 17:50:14 10° SE visible
16 Oct - 19:36:13 10° SSW 19:41:32 20° S 19:46:43 10° SE visible
16 Oct - 21:29:09 10° SW 21:34:41 22° S 21:40:00 10° SE visible
16 Oct - 23:23:55 10° SW 23:27:38 15° SSW 23:31:15 10° SSE night (unlit)
17 Oct - 18:42:55 10° SSW 18:47:54 18° SSE 18:52:49 10° SE visible
17 Oct - 20:35:20 10° SW 20:41:04 23° S 20:46:36 10° SE visible
17 Oct - 22:29:29 10° SW 22:34:07 18° SSW 22:38:36 10° SSE night (unlit)
18 Oct - 17:49:51 10° SSW 17:54:18 16° SSE 17:58:41 10° SE visible
18 Oct - 19:41:38 10° SW 19:47:25 23° S 19:53:03 10° SE visible
18 Oct - 21:35:19 10° SW 21:40:33 20° SSW 21:45:37 10° SSE visible
19 Oct - 16:57:15 10° S 17:00:42 13° SSE 17:04:08 10° SE daylight
19 Oct - 18:48:04 10° SW 18:53:46 22° S 18:59:22 10° SE visible
19 Oct - 20:41:18 10° SW 20:46:57 22° S 20:52:25 10° SE visible
19 Oct - 22:36:39 10° SW 22:39:54 13° SSW 22:43:06 10° S night (unlit)
20 Oct - 16:05:53 10° SSE 16:07:07 10° SSE 16:08:22 10° SE daylight
20 Oct - 17:54:39 10° SSW 18:00:07 21° SSE 18:05:31 10° ESE visible
20 Oct - 19:47:26 10° SW 19:53:18 24° S 19:59:02 10° SE visible
20 Oct - 21:41:57 10° SW 21:46:22 16° SSW 21:50:41 10° SSE visible
21 Oct - 17:01:28 10° SSW 17:06:28 18° SSE 17:11:29 10° SE daylight
21 Oct - 18:53:40 10° SW 18:59:39 24° S 19:05:31 10° SE visible
21 Oct - 20:47:38 10° WSW 20:52:48 19° SSW 20:57:49 10° SSE visible
22 Oct - 16:08:34 10° SSW 16:12:51 16° SSE 16:17:09 10° SE daylight
22 Oct - 18:00:03 10° SW 18:05:58 24° S 18:11:50 10° SE visible
22 Oct - 19:53:33 10° WSW 19:59:11 22° S 20:04:40 10° SE visible
22 Oct - 21:49:43 10° SW 21:52:07 12° SSW 21:54:29 10° S visible
23 Oct - 15:16:13 10° S 15:19:16 13° SSE 15:22:20 10° SE daylight
23 Oct - 17:06:36 10° SW 17:12:18 22° S 17:18:00 10° ESE visible
23 Oct - 18:59:38 10° SW 19:05:31 23° S 19:11:19 10° SE visible
23 Oct - 20:54:35 10° SW 20:58:35 15° SSW 21:02:30 10° S visible
24 Oct - 16:13:19 10° SSW 16:18:38 20° SSE 16:24:01 10° ESE daylight
24 Oct - 18:05:51 10° SW 18:11:50 24° S 18:17:48 10° SE visible
24 Oct - 20:00:07 10° SW 20:04:59 18° SSW 20:09:48 10° SSE visible
25 Oct - 15:20:18 10° SSW 15:25:01 18° SSE 15:29:50 10° SE daylight
25 Oct - 17:12:13 10° SW 17:18:09 24° S 17:24:08 10° SE visible
25 Oct - 19:05:57 10° WSW 19:11:21 20° SSW 19:16:44 10° SSE visible
